Flag for Poland Weather past 2 weeks in Wroclaw, Poland

Now
63 °F

Partly sunny.


Feels Like: 63 °F
Forecast: 52 / 64 °F
Wind: 5 mph from Northwest

Location: Wroclaw Ii

Current Time: Oct 1, 2014 at 5:43:53 PM

Latest Report: Oct 1, 2014 at 5:00 PM


Visibility: N/A

Pressure: 30.30 "Hg

Humidity: 83%

Dew point: 57 °F

Location of WroclawLocation

Historic Weather in Wroclaw — Graph

°F

Wroclaw temperature yesterday

Maximum temperature yesterday: 73 °F (at 2:30 PM)
Minimum temperature yesterday: 52 °F (at 1:30 AM)
Average temperature yesterday: 63 °F

Past Weeks' High & Low Weather Summary

 TemperatureHumidityPressure
High75 °F (Sep 16, 4:00 PM)94% (Sep 17, 3:30 AM)30.39 "Hg (Sep 17, 3:30 AM)
Low37 °F (Sep 24, 5:00 AM)39% (Sep 29, 2:30 PM)29.77 "Hg (Sep 21, 11:30 PM)
Average59 °F78%30.08 "Hg
* Reported Sep 16 4:00 PM — Oct 1 4:30 PM, Wroclaw, Weather by CustomWeather, © 2014

Note: Actual official high and low records may vary slightly from our data, if they occured in-between our weather recording intervals... More about our weather records

Advertising

Wroclaw weather history for previous 24 hours

 ConditionsComfort  
Time TempWeatherWind HumidityBarometerVisibility
4:30 PM
Oct 1
63 °FPartly sunny.3 mph83%30.30 "HgN/A
4:00 PM63 °FPartly sunny.5 mph83%30.30 "HgN/A
3:30 PM63 °FPartly sunny.6 mph83%30.30 "HgN/A
3:00 PM63 °FPartly sunny.6 mph83%30.30 "HgN/A
2:30 PM63 °FPartly sunny.7 mph83%30.30 "HgN/A
2:00 PM63 °FPartly sunny.9 mph83%30.30 "HgN/A
1:30 PM63 °FBroken clouds.8 mph83%30.30 "HgN/A
1:00 PM63 °FPartly sunny.8 mph88%30.30 "HgN/A
12:30 PM63 °FLight rain. Partly sunny.8 mph83%30.30 "HgN/A
12:00 PM63 °FPartly sunny.7 mph88%30.30 "HgN/A
11:30 AM61 °FPartly sunny.8 mph88%30.30 "HgN/A
11:00 AM63 °FPartly sunny.8 mph88%30.30 "HgN/A
10:30 AM61 °FPartly sunny.8 mph88%30.30 "Hg5 mi
10:00 AM61 °FPartly sunny.7 mph88%30.30 "Hg4 mi
9:30 AM61 °FFog.6 mph88%30.30 "Hg3 mi
9:00 AM59 °FFog.8 mph88%30.30 "Hg1 mi
8:30 AM59 °FDrizzle. Fog.5 mph88%30.30 "Hg1 mi
8:00 AM59 °FFog.5 mph88%30.27 "Hg2 mi
7:30 AM59 °FDrizzle. Fog.5 mph88%30.27 "Hg2 mi
7:00 AM59 °FFog.3 mph88%30.27 "Hg2 mi
6:30 AM59 °FFog.5 mph88%30.27 "Hg3 mi
6:00 AM59 °FFog.3 mph88%30.27 "Hg3 mi
5:30 AM59 °FFog.5 mph88%30.27 "Hg3 mi
5:00 AM57 °FFog.2 mph88%30.27 "Hg3 mi
4:30 AM59 °FPassing clouds.2 mph88%30.27 "HgN/A
4:00 AM59 °FPassing clouds.2 mph88%30.27 "HgN/A
3:30 AM59 °FPassing clouds.3 mph94%30.27 "HgN/A
3:00 AM61 °FPassing clouds.3 mph88%30.27 "HgN/A
2:30 AM61 °FClear.5 mph88%30.27 "Hg10 mi
2:00 AM61 °FClear.7 mph88%30.27 "Hg10 mi
1:30 AM61 °FClear.6 mph88%30.27 "Hg10 mi
1:00 AM61 °FClear.5 mph88%30.27 "Hg10 mi
12:30 AM63 °FClear.6 mph88%30.27 "Hg10 mi
12:00 AM61 °FClear.3 mph94%30.27 "Hg10 mi
11:30 PM
Sep 30
63 °FPassing clouds.2 mph88%30.27 "HgN/A
11:00 PM63 °FPassing clouds.2 mph88%30.27 "HgN/A
10:30 PM63 °FClear.2 mph88%30.27 "Hg10 mi
10:00 PM63 °FClear.5 mph88%30.24 "Hg10 mi
9:30 PM64 °FClear.6 mph83%30.24 "Hg10 mi
9:00 PM64 °FClear.5 mph83%30.24 "Hg10 mi
8:30 PM64 °FClear.5 mph88%30.24 "Hg10 mi
8:00 PM66 °FClear.5 mph83%30.24 "Hg10 mi
7:30 PM66 °FSunny.5 mph83%30.24 "Hg10 mi
7:00 PM66 °FLight rain. Clear.5 mph88%30.24 "HgN/A
6:30 PM66 °FScattered clouds.6 mph88%30.24 "HgN/A
6:00 PM68 °FScattered clouds.5 mph78%30.24 "HgN/A
5:30 PM70 °FSprinkles. Scattered clouds.8 mph73%30.24 "HgN/A
5:00 PM70 °FPassing clouds.2 mph78%30.24 "HgN/A
Weather by CustomWeather, © 2014

See weather overviewHow to use our weather pages